227  
ASUS41 KOKX 231614  
RWROKX  
 
REGIONAL WEATHER ROUNDUP  
NATIONAL WEATHER SERVICE NEW YORK NY  
1100 AM EST SAT JAN 23 2021  
 
NOTE: "FAIR" INDICATES FEW OR NO CLOUDS BELOW 12,000 FEET WITH NO  
SIGNIFICANT WEATHER AND/OR S TO VISIBILITY
.  
 
NYZ071-072-176-178-NJZ106-104-231700-  
NEW YORK CITY METRO AREA  
 
CITY SKY/WX TMP DP RH WIND PRES REMARKS
 
CENTRAL PARK MOSUNNY 30 7 37 NW15G22 30.07S WCI 19  
BRONX LEHMAN C N/A 30 10 43 NW13G28 N/A WCI 20  
LAGUARDIA ARPT MOSUNNY 33 11 39 NW22G28 30.06R WCI 21  
QUEENS COLLEGE N/A 30 9 40 NW16G29 N/A WCI 19  
KENNEDY INTL MOSUNNY 32 7 35 NW23G32 30.05S WCI 19  
BREEZY POINT NOT AVBL  
BROOKLYN COLL N/A 32 9 37 NW21G33 N/A WCI 20  
STATEN ISLAND N/A 30 9 40 NW20 N/A WCI 18  
NEWARK/LIBERTY MOSUNNY 31 6 35 NW23G36 30.08R WCI 18  
TETERBORO PTSUNNY 30 8 39 N14G31 30.06R WCI 19  

 
 
NYZ177-179-078>081-231700-  
LONG ISLAND NEW YORK  
 
CITY SKY/WX TMP DP RH WIND PRES REMARKS
 
JONES BEACH NOT AVBL  
WANTAGH N/A 32 10 40 NW21G35 N/A WCI 20  
HEMPSTEAD NOT AVBL  
MATINECOCK PT NOT AVBL  
FARMINGDALE SUNNY 31 8 38 NW18G28 30.03S WCI 19  
MACARTHUR/ISP MOSUNNY 31 10 41 NW25G36 30.00S WCI 17  
SHIRLEY MOSUNNY 32 10 40 NW16G30 30.00S WCI 21  
MT SINAI HARB NOT AVBL  
WESTHAMPTON MOSUNNY 29 10 45 W23G30 29.99S WCI 15  
EAST HAMPTON FAIR 31 11 44 NW15G23 29.96S WCI 20  
SOUTHOLD N/A 32 16 51 NW16 N/A WCI 21  
MONTAUK N/A 32 11 41 NW18G26 29.95S WCI 20  

 
 
NYZ052-065-067-231700-  
HUDSON VALLEY  
 
CITY SKY/WX TMP DP RH WIND PRES REMARKS
 
WHITE PLAINS PTSUNNY 29 8 41 NW24G33 30.01R WCI 15  
LARCHMONT HARB NOT AVBL  
CROTON ON HUDS NOT AVBL  
SOMERS N/A 28 10 47 NW9 N/A WCI 20  
BREWSTER N/A 27 9 46 NW15 N/A WCI 15  
NEWBURGH PTSUNNY 27 10 50 NW18G30 30.03R WCI 13  
MONTGOMERY CLOUDY 27 9 46 NW18G29 30.03R WCI 14  
OTISVILLE N/A 27 9 46 NW13G26 N/A WCI 16  
WARWICK N/A 27 12 54 NW17 N/A WCI 14  
SUFFERN N/A 28 10 47 NW17 N/A WCI 16  
POUGHKEEPSIE SUNNY 29 6 38 NW20G29 30.03R WCI 16  
ALBANY MOSUNNY 17 4 56 W20G35 30.07R WCI 1  

 
 
NJZ001-105-106-008-010-013-015-019>022-104-231700-  
NEW JERSEY  
 
CITY SKY/WX TMP DP RH WIND PRES REMARKS
 
NEWARK/LIBERTY MOSUNNY 31 6 35 NW23G36 30.08R WCI 18  
TETERBORO PTSUNNY 30 8 39 N14G31 30.06R WCI 19  
CALDWELL MOSUNNY 31 6 35 NW23G35 30.08R WCI 18  
SOMERVILLE MOSUNNY 31 7 36 NW14G24 30.09R WCI 21  
LINDEN FAIR 32 7 34 NW26G35 30.08S WCI 18  
PERTH AMBOY NOT AVBL  
SUSSEX MIX PCPN 27 9 46 NW14G30 30.06R WCI 16  
ANDOVER N/A 27 7 42 MISG 30.07R  
TRENTON MOSUNNY 30 6 36 NW18G32 30.11R WCI 18  
MILLVILLE PTSUNNY 31 4 31 NW15G25 30.16R WCI 20  
ATLANTIC CITY MOSUNNY 33 4 29 NW26G39 30.12R WCI 20  
WRIGHTSTOWN NOT AVBL  
TOMS RIVER MOSUNNY 32 8 36 NW16G31 30.10R WCI 21  
BELMAR MOSUNNY 31 8 38 NW22G33 30.08R WCI 18  

 
 
PAZ047>061-062-071-231700-  
EASTERN PENNSYLVANIA  
 
CITY SKY/WX TMP DP RH WIND PRES REMARKS
 
PHILADELPHIA MOSUNNY 32 6 33 NW28G38 30.17R WCI 18  
ALLENTOWN PTSUNNY 27 5 39 NW21G35 30.13R WCI 13  
SCRANTON CLOUDY 25 8 48 NW15G26 30.10R WCI 13  

 
 
CTZ002-004>006-009-010-012-RIZ004-006-007-MAZ004-011-015-231700-  
SOUTHERN NEW ENGLAND  
 
IN CT  
 
CITY SKY/WX TMP DP RH WIND PRES REMARKS
 
BRADLEY INTL MOSUNNY 26 6 42 NW21G30 29.98R WCI 12  
HARTFORD MOSUNNY 29 7 39 NW20G26 29.99R WCI 16  
DANBURY CLOUDY 27 7 42 NW15G26 30.00S WCI 15  
WTRBURY/OXFORD FLURRIES 24 15 68 NW13G20 29.97R WCI 12  
NORWALK HARBOR NOT AVBL  
BRIDGEPORT SUNNY 32 10 40 NW18G30 30.00R WCI 20  
MERIDEN MOSUNNY 30 7 37 NW20G28 29.99R WCI 17  
NEW HAVEN MOSUNNY 31 12 45 NW18G25 29.99R WCI 19  
CHESTER FAIR 28 5 37 NW22G37 29.94F WCI 15  
GROTON SUNNY 30 7 37 NW23G32 29.93F WCI 17  
WILLIMANTIC MOSUNNY 26 7 44 NW21G32 29.96R WCI 12  
 
IN RI  
 
CITY SKY/WX TMP DP RH WIND PRES REMARKS
 
PROVIDENCE MOSUNNY 30 9 41 NW18G25 29.89F WCI 18  
BLOCK ISLAND SUNNY 29 10 45 NW17G30 29.92S WCI 17  
WESTERLY SUNNY 28 6 39 NW14G28 29.92S WCI 17  
 
IN MA  
 
CITY SKY/WX TMP DP RH WIND PRES REMARKS
 
BOSTON MOSUNNY 29 7 39 NW13G23 29.87F WCI 19  
WORCESTER CLOUDY 24 8 50 NW23G30 29.84S WCI 9  
WESTFIELD SUNNY 24 7 48 NW18G36 29.97R WCI 10  
PROVINCETOWN CLOUDY 30 18 60 NW22G30 29.85S WCI 17  
NANTUCKET MOSUNNY 32 16 51 NW21G29 29.84F WCI 20  

 
 
ANZ330-335-338-340-345-350-353-355-231700-  
COASTAL MARINE OBSERVATIONS  
 
 
STATION/POSITION TIME SKY/WX TEMP WIND PRES VSBY WAVE
 
AIR SEA DIR/SP/G HT/PER  
(UTC) (F) (DEG/KT/KT) (MB) (MI) (FT/S)  
NY HARB ENTRANCE 1550 44 300/ 25/ 33 1017.2 4/ 5  
20 S FIRE ISLAND 1550 47 300/ 25/ 33 1016.1 6/ 6  
GREAT SOUTH BAY NOT AVBL  
23 SSW MONTAUK P 1600 31 46 300/ 21/ 31 1014.7  
15 E BARNEGAT LI 1556 46 N/A 6/ 5  
HUDSON CANYON NOT AVBL  
KINGS POINT 1530 28 10/ 22/ 29 1018.4  
EXECUTION ROCKS 1530 30 300/ 19/ 29 N/A  
WESTERN LI SOUND NOT AVBL  
CENTRAL LI SOUND NOT AVBL  
ROBBINS REEF 1530 29 300/ 24/ 26 1017.9  

 
 
>>>>>>>>>>>>>>>>>>>>>>>>>>>> KEY <<<<<<<<<<<<<<<<<<<<<<<<<<<  
> <  
> SKY/WX - SKY CONDITION/PRESENT WEATHER <  
> TMP - TEMPERATURE IN FAHRENHEIT <  
> DP - DEW POINT IN FAHRENHEIT <  
> RH - RELATIVE HUMIDITY IN PERCENT <  
> WIND - DIRECTION (FROM) AND SPEED IN MPH <  
> PRES - MEAN SEA LEVEL PRESSURE (INCHES OF HG) <  
> WCI - WIND CHILL INDEX <  
> VSB - VISIBILITY IN MILES <  
> HX - HEAT INDEX <  
> TC - TEMPERATURE IN CELSIUS <  
> VRB - VARIABLE WIND DIRECTION <  
> <  
>>>>>>>>>>>>>>>>>>>>>>>>>>>> KEY <<<<<<<<<<<<<<<<<<<<<<<<<<<  
 
 
CLICK HERE TO GO TO PREVIOUS BULLETINS.

The Nexlab NY Page
The Nexlab NJ Page
The Nexlab CT Page Main Text Page